ORBCOMM FM 22

Satellite information

Favourite Embed

Satellite Type and Status

PAYLOADIN ORBIT

Key statistics

Satellite ORBCOMM FM 22 at a glance.

Uptime

9723

Days in orbit

Revolutions

≈ 14.4

Per day

Orbit

LEO

Low Earth Orbit

Inclination

45.0

Latest

Satellite identification and parameters

Extended collection of information and parameters for ORBCOMM FM 22.

Object identification

Identified? True

Debris? False

Object name: ORBCOMM FM 22

International designator: 1998-053B

Object number (NORAD): 25476

Object ID (CCSDS): 25476

Country: ORBITAL TELECOMMUNICATIONS SATELLITE (GLOBALSTAR) (ORB)

Current information (Y/N): Y

RCS size: MEDIUM

Orbital parameters

Period: 100.12 minutes

Inclination: 45.0057 deg

SMA: 7142.321 km

Apoapsis: 767.276 km

Periapsis: 761.096 km

RAAN: 102.9647 deg

Eccentricy: 0.0004326

Argument of periapsis: 343.778 deg

Mean anomaly: 16.293 deg

Mean motion: 14.38280979 rev/day

Mean motion (dot): 0.00001637 rev/day2

B* drag term: 0.0005794 1/REarth

Two-line elements (TLE)

Creation date: May 7, 2025, 3:14 a.m.

Reference frame: TEME

Reference center: EARTH

Epoch: May 6, 2025, 7:31 a.m. UTC

TLE line 0: 0 ORBCOMM FM 22

TLE line 1: 1 25476U 98053B 25126.31362522 .00001637 00000-0 57940-3 0 9994

TLE line 2: 2 25476 45.0057 102.9647 0004326 343.7780 16.2930 14.38280979391244

Live tracking on map

Real-time ground track for satellite ORBCOMM FM 22.

In-orbit conjunctions

There are no conjunctions computed for ORBCOMM FM 22, at the moment. Check back to stay up to date, as we update our databases every day.

Go to all conjunctions

Associated space launch

ORBCOMM FM 22 was lifted into orbit during the mission ‘Pegasus XL HAPS | Orbcomm-C1 - C8’, on board a Pegasus XL HAPS space rocket.

The launch took place on Sept. 23, 1998, 5:06 a.m. from Wallops Flight Facility.

For more information about the launch, click the button.

Launch to space Pegasus XL HAPS | Orbcomm-C1 - C8
Pegasus XL HAPS | Orbcomm-C1 - C8

Agency: N/A

Status: Launch Successful

Launch date: Sept. 23, 1998, 5:06 a.m. UTC

Rocket: Pegasus XL HAPS

Launch pad: Wallops Flight Facility

Location: Air launch to orbit

...

Latest news about this satellite

There are no fresh news available about this satellite. Check back as we update our databases every day.


Newsletter sign-up

Weekly statistics, charts and insights to help you stay on top of the space industry.